Weather in Narayanganj

Bangladesh     23°38′56″N   90°29′33″E
temp.,
°C
wind,
m/s
gust,
m/s
humid.,
%
clouds,
%
prec.,
mm/h
press.,
hPa
HPBL,
m
29 july, thu
thu2900:00+26ese5891100 0.6 997469
03:00+25e4996100 1.6 994472
06:00+25e71396100 16.5 994721
09:00+26ese101893100 6.7 9941180
12:00+26se71393100 13.0 995790
15:00+28se81386100 2.6 994959
18:00+27se81388100 5.8 995901
21:00+26se71391100 3.9 998690
30 july, fri
fri3000:00+26se71392100 5.8 999751
03:00+26se61293100 1.3 998741
06:00+26ese61193100 3.9 1000607
09:00+27se61091100 1.8 1001624
12:00+28ese6885100 4.3 1001678
15:00+31sse6773100 5.8 9991039
18:00+29s5983100 11.7 999587
21:00+27s4987100 2.2 1002486
31 july, sat
sat3100:00+26sse3891100 2.7 1002332
03:00+26sse3687100 1.8 1001155
06:00+26se479025 2.9 1002252
09:00+30se457128 0.1 1003886
12:00+31s4567100 3.3 10021074
15:00+32s556655 3.1 9991149
18:00+30s4777100 6.3 1000474
21:00+28s4982100 3.2 1002444
1 august, sun
sun100:00+27s4986100 6.7 1003384
03:00+27s388879 1.0 1001343
06:00+27sse378796 1.2 1001300
09:00+30sse456747 0.1 1002938
12:00+33sse5557100 0.4 10001538
15:00+33s665898 0.5 9981437
18:00+31sse577081 1.3 999698
21:00+29sse477872 0.1 1002459
2 august, mon
mon200:00+28s488090 0.7 1002443
03:00+27s3684100 0.4 1000291
06:00+27sse2485100 0.8 1002210
09:00+31sse346657 0.0 1003932
12:00+34sse435268 0.0 10011748
15:00+32sse456199 0.6 1000909
18:00+31s5665100 0.8 1000583
21:00+29sse4775100 0.0 1002438